Jefferson, NC

1:19 PM EDT on July 22, 2017 (GMT -0400)
Ashe County

Weather History for KGEV - November, 2011

Change the Weather History Date:

Wednesday, November 23, 2011

  Actual Average Record
Temperature  
Mean Temperature 49 °F -  
Max Temperature 57 °F 52 °F 69 °F (1973)
Min Temperature 41 °F 28 °F 10 °F (1984)
Degree Days  
Heating Degree Days 16    
Moisture  
Dew Point 40 °F    
Average Humidity 75    
Maximum Humidity 88    
Minimum Humidity 66    
Precipitation  
Precipitation 0.10 in - - ()
Sea Level Pressure  
Sea Level Pressure 29.92 in    
Wind  
Wind Speed 18 mph (NW)    
Max Wind Speed 30 mph    
Max Gust Speed 46 mph    
Visibility 9 miles    
Events Rain    
Averages and records for this station are not official NWS values.
T = Trace of Precipitation, MM = Missing Value Source: NWS Daily Summary

Daily Weather History Graph

Daily Weather History Graph

Search for Another Location

Airport or City:

Trip Planner

Search our weather history database for the weather conditions in past years. The results will help you decide how hot, cold, wet, or windy it might be!

Date:

Astronomy

Nov. 23, 2011 Rise Set
Actual Time 7:10 AM EST 5:12 PM EST
Civil Twilight 6:42 AM EST 5:40 PM EST
Nautical Twilight 6:11 AM EST 6:12 PM EST
Astronomical Twilight 5:40 AM EST 6:43 PM EST
Moon 5:14 AM EST (11/23) 3:52 PM EST (11/23)
Length of Visible Light 10h 57m
Length of Day
10h 02m
Waning Crescent, 4% of the Moon is Illuminated
Nov 23
Waning Crescent
Nov 25
New
Dec 2
First Quarter
Dec 10
Full
Dec 17
Last Quarter

Hourly Weather History & Observations

Time (EST) Temp. Windchill Dew Point Humidity Pressure Visibility Wind Dir Wind Speed Gust Speed Precip Events Conditions
12:15 AM 55.4 °F - 51.8 °F 88% 29.89 in 10.0 mi WNW 13.8 mph 18.4 mph N/A Rain Light Rain
12:35 AM 55.4 °F - 51.8 °F 88% 29.89 in 10.0 mi West 13.8 mph 21.9 mph 0.05 in Rain Light Rain
12:55 AM 57.2 °F - 50.0 °F 77% 29.88 in 10.0 mi West 15.0 mph 23.0 mph 0.05 in   Overcast
1:15 AM 57.2 °F - 50.0 °F 77% 29.86 in 10.0 mi West 13.8 mph 24.2 mph N/A   Mostly Cloudy
1:35 AM 55.4 °F - 50.0 °F 82% 29.86 in 10.0 mi West 9.2 mph 21.9 mph N/A   Clear
1:55 AM 55.4 °F - 50.0 °F 82% 29.85 in 10.0 mi West 20.7 mph 27.6 mph N/A   Mostly Cloudy
2:15 AM 55.4 °F - 50.0 °F 82% 29.85 in 10.0 mi WNW 23.0 mph 31.1 mph N/A   Overcast
2:35 AM 55.4 °F - 48.2 °F 77% 29.85 in 10.0 mi WNW 17.3 mph 27.6 mph N/A   Mostly Cloudy
3:35 AM 55.4 °F - 46.4 °F 72% 29.84 in 10.0 mi West 12.7 mph 17.3 mph N/A   Overcast
3:55 AM 55.4 °F - 46.4 °F 72% 29.82 in 10.0 mi West 9.2 mph 18.4 mph N/A Rain Rain
4:15 AM 55.4 °F - 46.4 °F 72% 29.82 in 10.0 mi West 11.5 mph 21.9 mph N/A   Overcast
4:35 AM 55.4 °F - 46.4 °F 72% 29.82 in 10.0 mi West 18.4 mph 27.6 mph N/A   Light Drizzle
4:55 AM 53.6 °F - 46.4 °F 77% 29.82 in 7.0 mi West 11.5 mph 19.6 mph N/A   Drizzle
5:15 AM 53.6 °F - 46.4 °F 77% 29.82 in 10.0 mi West 15.0 mph 24.2 mph N/A   Overcast
5:35 AM 53.6 °F - 46.4 °F 77% 29.82 in 7.0 mi West 16.1 mph 20.7 mph N/A Rain Light Rain
6:15 AM 53.6 °F - 46.4 °F 77% 29.83 in 10.0 mi WNW 20.7 mph 29.9 mph 0.01 in Rain Rain
6:35 AM 51.8 °F - 46.4 °F 82% 29.84 in 5.0 mi WNW 21.9 mph 27.6 mph 0.05 in Rain Rain
6:55 AM 51.8 °F - 44.6 °F 76% 29.85 in 10.0 mi WNW 16.1 mph 32.2 mph 0.05 in   Overcast
7:15 AM 51.8 °F - 44.6 °F 76% 29.86 in 10.0 mi WNW 17.3 mph 29.9 mph N/A   Overcast
7:35 AM 51.8 °F - 44.6 °F 76% 29.86 in 10.0 mi WNW 17.3 mph 24.2 mph N/A   Overcast
7:55 AM 50.0 °F - 42.8 °F 76% 29.86 in 7.0 mi NW 19.6 mph 33.4 mph N/A Rain Rain
8:15 AM 50.0 °F - 42.8 °F 76% 29.85 in 10.0 mi WNW 24.2 mph 40.3 mph N/A   Overcast
8:35 AM 50.0 °F - 42.8 °F 76% 29.87 in 5.0 mi West 16.1 mph 27.6 mph N/A   Light Drizzle
8:55 AM 50.0 °F - 42.8 °F 76% 29.87 in 7.0 mi NW 16.1 mph 35.7 mph N/A   Overcast
9:15 AM 48.2 °F - 42.8 °F 82% 29.88 in 7.0 mi NW 21.9 mph 31.1 mph N/A   Overcast
9:35 AM 46.4 °F 40.1 °F 41.0 °F 81% 29.89 in 4.0 mi NW 15.0 mph 21.9 mph N/A   Drizzle
9:55 AM 44.6 °F 35.1 °F 37.4 °F 76% 29.89 in 10.0 mi NW 27.6 mph 40.3 mph N/A   Overcast
10:15 AM 44.6 °F 36.1 °F 37.4 °F 76% 29.90 in 10.0 mi NW 21.9 mph 41.4 mph N/A   Overcast
10:35 AM 44.6 °F 36.4 °F 37.4 °F 76% 29.92 in 10.0 mi NW 20.7 mph 34.5 mph N/A   Overcast
10:55 AM 42.8 °F 34.8 °F 35.6 °F 76% 29.92 in 10.0 mi NW 17.3 mph 46.0 mph N/A   Overcast
11:15 AM 42.8 °F 32.9 °F 35.6 °F 76% 29.93 in 10.0 mi WNW 26.5 mph 38.0 mph N/A   Overcast
11:35 AM 42.8 °F 32.3 °F 35.6 °F 76% 29.93 in 7.0 mi NW 29.9 mph 42.6 mph N/A   Overcast
11:55 AM 41.0 °F 32.8 °F 35.6 °F 81% 29.95 in 5.0 mi NW 16.1 mph 39.1 mph N/A   Haze
12:15 PM 41.0 °F 31.6 °F 35.6 °F 81% 29.95 in 10.0 mi NNW 20.7 mph 33.4 mph N/A   Overcast
12:35 PM 41.0 °F 31.6 °F 33.8 °F 76% 29.95 in 10.0 mi NNW 20.7 mph 27.6 mph N/A   Overcast
12:55 PM 41.0 °F 32.8 °F 33.8 °F 76% 29.97 in 10.0 mi NNW 16.1 mph 28.8 mph N/A   Overcast
1:15 PM 42.8 °F 35.4 °F 33.8 °F 70% 29.97 in 10.0 mi NNW 15.0 mph 27.6 mph N/A   Overcast
1:35 PM 42.8 °F 34.3 °F 33.8 °F 70% 29.98 in 10.0 mi NNW 19.6 mph 27.6 mph N/A   Overcast
1:55 PM 42.8 °F 34.5 °F 33.8 °F 70% 29.98 in 10.0 mi NNW 18.4 mph 28.8 mph N/A   Overcast
2:15 PM 42.8 °F 33.3 °F 33.8 °F 70% 29.98 in 10.0 mi NNW 24.2 mph 32.2 mph N/A   Overcast
2:35 PM 42.8 °F 33.8 °F 33.8 °F 70% 29.99 in 10.0 mi NNW 21.9 mph 36.8 mph N/A   Overcast
2:55 PM 42.8 °F 32.7 °F 32.0 °F 66% 29.98 in 10.0 mi NNW 27.6 mph 33.4 mph N/A   Scattered Clouds
3:15 PM 42.8 °F 32.9 °F 32.0 °F 66% 29.99 in 10.0 mi NNW 26.5 mph 39.1 mph N/A   Clear
3:35 PM 42.8 °F 32.7 °F 32.0 °F 66% 29.99 in 10.0 mi NNW 27.6 mph 34.5 mph N/A   Clear
3:55 PM 42.8 °F 32.7 °F 32.0 °F 66% 30.00 in 10.0 mi NNW 27.6 mph 39.1 mph N/A   Clear
4:15 PM 42.8 °F 32.9 °F 32.0 °F 66% 30.00 in 10.0 mi NW 26.5 mph 35.7 mph N/A   Clear
4:35 PM 41.0 °F 31.1 °F 32.0 °F 70% 30.01 in 10.0 mi NW 23.0 mph 40.3 mph N/A   Clear
4:55 PM 41.0 °F 30.9 °F 32.0 °F 70% 30.02 in 10.0 mi NW 24.2 mph 42.6 mph N/A   Clear
5:15 PM 41.0 °F 30.2 °F 32.0 °F 70% 30.03 in 10.0 mi NW 27.6 mph 36.8 mph N/A   Clear
5:35 PM 41.0 °F 30.2 °F 32.0 °F 70% 30.03 in 10.0 mi NNW 27.6 mph 35.7 mph N/A   Clear
5:55 PM 41.0 °F 30.2 °F 32.0 °F 70% 30.04 in 10.0 mi NNW 27.6 mph 36.8 mph N/A   Clear
6:15 PM 41.0 °F 30.5 °F 32.0 °F 70% 30.05 in 10.0 mi NNW 26.5 mph 34.5 mph N/A   Clear
6:35 PM 41.0 °F 30.5 °F 32.0 °F 70% 30.05 in 10.0 mi NNW 26.5 mph 41.4 mph N/A   Clear
6:55 PM 41.0 °F 30.9 °F 32.0 °F 70% 30.06 in 10.0 mi NNW 24.2 mph 35.7 mph N/A   Clear
7:15 PM 41.0 °F 30.2 °F 32.0 °F 70% 30.06 in 10.0 mi NNW 27.6 mph 35.7 mph N/A   Clear
7:35 PM 41.0 °F 31.1 °F 32.0 °F 70% 30.07 in 10.0 mi NNW 23.0 mph 39.1 mph N/A   Clear
7:55 PM 41.0 °F 30.9 °F 30.2 °F 65% 30.08 in 10.0 mi NNW 24.2 mph 35.7 mph N/A   Clear
8:15 PM 41.0 °F 30.9 °F 30.2 °F 65% 30.09 in 10.0 mi NNW 24.2 mph 38.0 mph N/A   Clear
8:35 PM 41.0 °F 30.9 °F 30.2 °F 65% 30.10 in 10.0 mi NNW 24.2 mph 39.1 mph N/A   Clear
8:55 PM 41.0 °F 30.0 °F 30.2 °F 65% 30.09 in 10.0 mi NNW 28.8 mph 34.5 mph N/A   Clear
9:15 PM 41.0 °F 31.6 °F 30.2 °F 65% 30.11 in 10.0 mi NNW 20.7 mph 33.4 mph N/A   Clear
9:35 PM 41.0 °F 31.9 °F 28.4 °F 61% 30.12 in 10.0 mi NNW 19.6 mph 34.5 mph N/A   Clear
9:55 PM 41.0 °F 31.6 °F 30.2 °F 65% 30.13 in 10.0 mi NNW 20.7 mph 31.1 mph N/A   Clear
10:15 PM 41.0 °F 31.6 °F 28.4 °F 61% 30.14 in 10.0 mi NNW 20.7 mph 29.9 mph N/A   Clear
10:35 PM 41.0 °F 32.2 °F 28.4 °F 61% 30.14 in 10.0 mi NNW 18.4 mph 27.6 mph N/A   Clear
10:55 PM 39.2 °F 29.0 °F 28.4 °F 65% 30.14 in 10.0 mi NNW 21.9 mph 29.9 mph N/A   Clear
11:15 PM 39.2 °F 29.6 °F 28.4 °F 65% 30.15 in 10.0 mi NNW 19.6 mph 34.5 mph N/A   Clear
11:35 PM 39.2 °F 30.5 °F 30.2 °F 70% 30.15 in 10.0 mi NNW 16.1 mph 28.8 mph N/A   Clear
11:55 PM 37.4 °F 30.8 °F 30.2 °F 75% 30.16 in 10.0 mi North 9.2 mph 23.0 mph N/A   Clear